| time (UTC) | temp F | wind direction | speed MPH | gust MPH | rain 1hr in | rain 24hr in | rain mn in | humidity % | barometer mb |
| 20260507021537 | 58 | 184 | 1.0 | 0.0 | 0.00 | 0.00 | 0.00 | 77 | 1019.7 |
| 20260507020046 | 58 | 186 | 3.0 | 0.0 | 0.00 | 0.00 | 0.00 | 77 | 1019.6 |
| 20260507014535 | 58 | 202 | 1.0 | 0.0 | 0.00 | 0.00 | 0.00 | 78 | 1019.7 |
| 20260507013032 | 58 | 163 | 2.0 | 0.0 | 0.00 | 0.00 | 0.00 | 78 | 1019.7 |
| 20260507011542 | 58 | 197 | 3.0 | 0.0 | 0.00 | 0.00 | 0.00 | 78 | 1019.8 |
| 20260507010035 | 58 | 201 | 2.0 | 0.0 | 0.00 | 0.00 | 0.00 | 78 | 1019.8 |
| 20260507004532 | 58 | 193 | 3.0 | 0.0 | 0.00 | 0.00 | 0.00 | 76 | 1019.8 |
| 20260507003030 | 58 | 126 | 3.0 | 0.0 | 0.00 | 0.00 | 0.00 | 76 | 1019.9 |
| 20260507001601 | 58 | 202 | 3.0 | 0.0 | 0.00 | 0.00 | 0.00 | 75 | 1019.8 |
| 20260507000035 | 58 | 144 | 3.0 | 0.0 | 0.00 | 0.00 | 0.00 | 75 | 1019.8 |
| 20260506234528 | 58 | 169 | 2.0 | 0.0 | 0.00 | 0.00 | 0.00 | 75 | 1019.8 |
| 20260506233027 | 58 | 153 | 3.0 | 0.0 | 0.00 | 0.00 | 0.00 | 75 | 1019.8 |
| 20260506231527 | 59 | 174 | 4.0 | 0.0 | 0.00 | 0.00 | 0.00 | 73 | 1019.7 |
| 20260506230040 | 59 | 196 | 4.0 | 0.0 | 0.00 | 0.00 | 0.00 | 73 | 1019.8 |
| 20260506224526 | 59 | 158 | 4.0 | 0.0 | 0.00 | 0.00 | 0.00 | 73 | 1019.9 |
| 20260506223029 | 58 | 195 | 3.0 | 0.0 | 0.00 | 0.00 | 0.00 | 75 | 1019.9 |
| 20260506221521 | 57 | 176 | 3.0 | 0.0 | 0.00 | 0.00 | 0.00 | 75 | 1020.0 |
| 20260506220021 | 57 | 171 | 3.0 | 0.0 | 0.00 | 0.00 | 0.00 | 77 | 1020.1 |
| 20260506214521 | 57 | 173 | 3.0 | 0.0 | 0.00 | 0.00 | 0.00 | 76 | 1020.2 |
| 20260506213019 | 58 | 153 | 3.0 | 0.0 | 0.00 | 0.00 | 0.00 | 77 | 1020.2 |
| 20260506211522 | 58 | 183 | 2.0 | 0.0 | 0.00 | 0.00 | 0.00 | 77 | 1020.1 |
| 20260506210036 | 57 | 167 | 2.0 | 0.0 | 0.00 | 0.00 | 0.00 | 79 | 1020.1 |
| 20260506204514 | 57 | 162 | 2.0 | 0.0 | 0.00 | 0.00 | 0.00 | 80 | 1020.0 |
| 20260506203012 | 57 | 138 | 2.0 | 0.0 | 0.00 | 0.00 | 0.00 | 82 | 1020.0 |
| 20260506201519 | 56 | 141 | 2.0 | 0.0 | 0.00 | 0.00 | 0.00 | 82 | 1020.0 |
| 20260506200011 | 56 | 194 | 2.0 | 0.0 | 0.00 | 0.00 | 0.00 | 84 | 1020.0 |
| 20260506194511 | 56 | 229 | 2.0 | 0.0 | 0.00 | 0.00 | 0.00 | 84 | 1019.9 |
| 20260506193018 | 56 | 184 | 2.0 | 0.0 | 0.00 | 0.00 | 0.00 | 87 | 1020.0 |
| 20260506191511 | 55 | 165 | 2.0 | 0.0 | 0.00 | 0.00 | 0.00 | 88 | 1019.8 |
| 20260506190012 | 55 | 152 | 2.0 | 0.0 | 0.00 | 0.00 | 0.00 | 88 | 1019.8 |
| 20260506184507 | 55 | 194 | 2.0 | 0.0 | 0.00 | 0.00 | 0.00 | 90 | 1019.8 |
| 20260506183006 | 55 | 216 | 2.0 | 0.0 | 0.00 | 0.00 | 0.00 | 90 | 1019.8 |
| 20260506181505 | 55 | 174 | 1.0 | 0.0 | 0.00 | 0.00 | 0.00 | 90 | 1019.9 |
| 20260506180004 | 55 | 184 | 2.0 | 0.0 | 0.00 | 0.00 | 0.00 | 90 | 1019.5 |
| 20260506174503 | 55 | 166 | 2.0 | 0.0 | 0.00 | 0.00 | 0.00 | 90 | 1019.4 |
| 20260506173002 | 55 | 184 | 2.0 | 0.0 | 0.00 | 0.00 | 0.00 | 89 | 1019.5 |
| 20260506171600 | 55 | 200 | 1.0 | 0.0 | 0.00 | 0.00 | 0.00 | 89 | 1019.5 |
| 20260506170109 | 54 | 148 | 2.0 | 0.0 | 0.00 | 0.00 | 0.00 | 88 | 1019.6 |
| 20260506164625 | 54 | 177 | 2.0 | 0.0 | 0.00 | 0.00 | 0.00 | 89 | 1019.3 |
| 20260506163104 | 54 | 191 | 3.0 | 0.0 | 0.00 | 0.00 | 0.00 | 89 | 1019.3 |
| 20260506161555 | 54 | 120 | 4.0 | 0.0 | 0.00 | 0.00 | 0.00 | 89 | 1019.1 |
| 20260506160059 | 54 | 186 | 2.0 | 0.0 | 0.00 | 0.00 | 0.00 | 89 | 1018.9 |
| 20260506154554 | 54 | 208 | 3.0 | 0.0 | 0.00 | 0.00 | 0.00 | 89 | 1018.9 |
| 20260506153049 | 55 | 179 | 2.0 | 0.0 | 0.00 | 0.00 | 0.00 | 89 | 1019.1 |
| 20260506151547 | 54 | 159 | 3.0 | 0.0 | 0.00 | 0.00 | 0.00 | 88 | 1019.1 |
| 20260506150054 | 54 | 130 | 3.0 | 0.0 | 0.00 | 0.00 | 0.00 | 88 | 1018.7 |
| 20260506144543 | 54 | 96 | 3.0 | 0.0 | 0.00 | 0.00 | 0.00 | 88 | 1018.7 |
| 20260506143041 | 54 | 181 | 3.0 | 0.0 | 0.00 | 0.00 | 0.00 | 88 | 1018.8 |
| 20260506141543 | 54 | 196 | 3.0 | 0.0 | 0.00 | 0.00 | 0.00 | 88 | 1018.8 |
| 20260506140036 | 54 | 175 | 3.0 | 0.0 | 0.00 | 0.00 | 0.00 | 87 | 1018.5 |
| 20260506134533 | 54 | 128 | 3.0 | 0.0 | 0.00 | 0.00 | 0.00 | 87 | 1018.6 |
| 20260506133034 | 54 | 154 | 2.0 | 0.0 | 0.00 | 0.00 | 0.00 | 87 | 1018.5 |
| 20260506131529 | 54 | 177 | 3.0 | 0.0 | 0.00 | 0.00 | 0.00 | 87 | 1018.4 |
| 20260506130028 | 54 | 177 | 3.0 | 0.0 | 0.00 | 0.00 | 0.00 | 86 | 1017.8 |
| 20260506124526 | 54 | 192 | 2.0 | 0.0 | 0.00 | 0.00 | 0.00 | 86 | 1018.1 |
| 20260506123024 | 54 | 182 | 2.0 | 0.0 | 0.00 | 0.00 | 0.00 | 86 | 1017.9 |
| 20260506121524 | 55 | 182 | 3.0 | 0.0 | 0.00 | 0.00 | 0.00 | 85 | 1017.8 |
| 20260506120046 | 55 | 171 | 2.0 | 0.0 | 0.00 | 0.00 | 0.00 | 85 | 1017.9 |
| 20260506114520 | 55 | 189 | 1.0 | 0.0 | 0.00 | 0.00 | 0.00 | 86 | 1017.7 |
| 20260506113019 | 55 | 183 | 3.0 | 0.0 | 0.00 | 0.00 | 0.00 | 86 | 1017.5 |
| 20260506111517 | 55 | 175 | 2.0 | 0.0 | 0.00 | 0.00 | 0.00 | 86 | 1017.5 |
| 20260506110015 | 55 | 165 | 3.0 | 0.0 | 0.00 | 0.00 | 0.00 | 85 | 1017.3 |
| 20260506104526 | 55 | 180 | 2.0 | 0.0 | 0.00 | 0.00 | 0.00 | 85 | 1017.2 |
| 20260506103033 | 55 | 207 | 2.0 | 0.0 | 0.00 | 0.00 | 0.00 | 86 | 1017.3 |
| 20260506101512 | 55 | 188 | 3.0 | 0.0 | 0.00 | 0.00 | 0.00 | 86 | 1017.2 |
| 20260506100010 | 55 | 167 | 3.0 | 0.0 | 0.00 | 0.00 | 0.00 | 86 | 1017.0 |
| 20260506094511 | 55 | 191 | 3.0 | 0.0 | 0.00 | 0.00 | 0.00 | 86 | 1016.8 |
| 20260506093016 | 55 | 171 | 3.0 | 0.0 | 0.00 | 0.00 | 0.00 | 86 | 1016.8 |
| 20260506091506 | 55 | 150 | 2.0 | 0.0 | 0.00 | 0.00 | 0.00 | 86 | 1016.6 |
| 20260506090005 | 55 | 133 | 2.0 | 0.0 | 0.00 | 0.00 | 0.00 | 86 | 1016.5 |
| 20260506084502 | 55 | 173 | 2.0 | 0.0 | 0.00 | 0.00 | 0.00 | 86 | 1016.5 |
| 20260506083100 | 55 | 175 | 2.0 | 0.0 | 0.00 | 0.00 | 0.00 | 86 | 1016.2 |
| 20260506081601 | 56 | 191 | 1.0 | 0.0 | 0.00 | 0.00 | 0.00 | 85 | 1016.1 |
| 20260506073054 | 56 | 184 | 0.0 | 0.0 | 0.00 | 0.00 | 0.00 | 84 | 1016.0 |
| 20260506071554 | 57 | 184 | 0.0 | 0.0 | 0.00 | 0.00 | 0.00 | 84 | 1016.0 |
| 20260506061552 | 58 | 184 | 0.0 | 0.0 | 0.00 | 0.00 | 0.00 | 81 | 1015.6 |
| 20260506044547 | 60 | 186 | 1.0 | 0.0 | 0.00 | 0.00 | 0.00 | 79 | 1014.7 |
| 20260506043048 | 60 | 184 | 1.0 | 0.0 | 0.00 | 0.00 | 0.00 | 77 | 1014.6 |
| 20260506041558 | 60 | 184 | 0.0 | 0.0 | 0.00 | 0.00 | 0.00 | 77 | 1014.6 |
| 20260506040046 | 61 | 184 | 0.0 | 0.0 | 0.00 | 0.00 | 0.00 | 76 | 1014.5 |
| 20260506034545 | 61 | 184 | 0.0 | 0.0 | 0.00 | 0.00 | 0.00 | 75 | 1014.5 |
| 20260506033044 | 62 | 184 | 0.0 | 0.0 | 0.00 | 0.00 | 0.00 | 75 | 1014.3 |
| 20260506031546 | 62 | 184 | 0.0 | 0.0 | 0.00 | 0.00 | 0.00 | 74 | 1014.3 |
| 20260506030044 | 63 | 184 | 1.0 | 0.0 | 0.00 | 0.00 | 0.00 | 73 | 1014.1 |
| 20260506024544 | 63 | 240 | 1.0 | 0.0 | 0.00 | 0.00 | 0.00 | 72 | 1014.1 |
| 20260506023100 | 63 | 199 | 1.0 | 0.0 | 0.00 | 0.00 | 0.00 | 71 | 1014.1 |